Time,TemperatureF,DewpointF,PressureIn,WindDirection,WindDirectionDegrees,WindSpeedMPH,WindSpeedGustMPH,Humidity,HourlyPrecipIn,Conditions,Clouds,dailyrainin,SoftwareType,DateUTC
2013-08-12 00:33:00,71.0,-99.9,30.03,ESE,117,-999.0,-999.0,-999,0.00,,,-99.99,,2013-08-12 04:33:00,
2013-08-12 00:43:00,71.0,-99.9,30.03,ESE,117,-999.0,-999.0,-999,0.00,,,-99.99,,2013-08-12 04:43:00,
2013-08-12 00:52:00,71.0,-99.9,30.03,ESE,117,-999.0,-999.0,-999,0.00,,,-99.99,,2013-08-12 04:52:00,
2013-08-12 01:32:00,70.0,-99.9,30.03,ESE,117,-999.0,-999.0,-999,0.00,,,-99.99,,2013-08-12 05:32:00,
2013-08-12 01:43:00,70.0,-99.9,30.03,ESE,117,-999.0,-999.0,-999,0.00,,,-99.99,,2013-08-12 05:43:00,
2013-08-12 01:52:00,70.0,-99.9,30.03,ESE,117,-999.0,-999.0,-999,0.00,,,-99.99,,2013-08-12 05:52:00,
2013-08-12 02:32:00,70.0,-99.9,30.02,ESE,117,-999.0,-999.0,-999,0.04,,,-99.99,,2013-08-12 06:32:00,
2013-08-12 02:42:00,70.0,-99.9,30.02,ESE,117,-999.0,-999.0,-999,0.04,,,-99.99,,2013-08-12 06:42:00,
2013-08-12 02:52:00,70.0,-99.9,30.02,ESE,117,-999.0,-999.0,-999,0.04,,,-99.99,,2013-08-12 06:52:00,
2013-08-12 02:53:00,69.0,-99.9,30.01,ESE,117,-999.0,-999.0,-999,0.12,,,-99.99,,2013-08-12 06:53:00,
2013-08-12 03:33:00,69.0,-99.9,30.01,ESE,117,-999.0,-999.0,-999,0.12,,,-99.99,,2013-08-12 07:33:00,
2013-08-12 03:43:00,69.0,-99.9,30.01,ESE,117,-999.0,-999.0,-999,0.12,,,-99.99,,2013-08-12 07:43:00,
2013-08-12 03:53:00,68.0,-99.9,30.01,ESE,117,-999.0,-999.0,-999,0.00,,,-99.99,,2013-08-12 07:53:00,
2013-08-12 04:33:00,68.0,-99.9,30.01,ESE,117,-999.0,-999.0,-999,0.00,,,-99.99,,2013-08-12 08:33:00,
2013-08-12 04:43:00,68.0,-99.9,30.01,ESE,117,-999.0,-999.0,-999,0.00,,,-99.99,,2013-08-12 08:43:00,
2013-08-12 04:53:00,68.0,-99.9,30.00,ESE,117,-999.0,-999.0,-999,0.00,,,-99.99,,2013-08-12 08:53:00,
2013-08-12 05:32:00,68.0,-99.9,30.00,ESE,117,-999.0,-999.0,-999,0.00,,,-99.99,,2013-08-12 09:32:00,
2013-08-12 05:43:00,68.0,-99.9,30.00,ESE,117,-999.0,-999.0,-999,0.00,,,-99.99,,2013-08-12 09:43:00,
2013-08-12 06:32:00,68.0,-99.9,30.01,ESE,117,-999.0,-999.0,-999,0.00,,,-99.99,,2013-08-12 10:32:00,
2013-08-12 06:43:00,68.0,-99.9,30.01,ESE,117,-999.0,-999.0,-999,0.00,,,-99.99,,2013-08-12 10:43:00,
2013-08-12 06:52:00,68.0,-99.9,30.01,ESE,117,-999.0,-999.0,-999,0.00,,,-99.99,,2013-08-12 10:52:00,
2013-08-12 06:53:00,68.0,-99.9,30.01,ESE,117,-999.0,-999.0,-999,0.01,,,-99.99,,2013-08-12 10:53:00,
2013-08-12 07:32:00,68.0,-99.9,30.01,ESE,117,-999.0,-999.0,-999,0.01,,,-99.99,,2013-08-12 11:32:00,
2013-08-12 07:43:00,68.0,-99.9,30.01,ESE,117,-999.0,-999.0,-999,0.01,,,-99.99,,2013-08-12 11:43:00,
2013-08-12 08:32:00,68.0,-99.9,30.02,ESE,117,-999.0,-999.0,-999,0.02,,,-99.99,,2013-08-12 12:32:00,
2013-08-12 08:43:00,68.0,-99.9,30.02,ESE,117,-999.0,-999.0,-999,0.02,,,-99.99,,2013-08-12 12:43:00,
2013-08-12 08:52:00,68.0,-99.9,30.02,ESE,117,-999.0,-999.0,-999,0.02,,,-99.99,,2013-08-12 12:52:00,
2013-08-12 08:53:00,69.0,-99.9,30.02,ESE,117,-999.0,-999.0,-999,0.00,,,-99.99,,2013-08-12 12:53:00,
2013-08-12 09:43:00,69.0,-99.9,30.02,ESE,117,-999.0,-999.0,-999,0.00,,,-99.99,,2013-08-12 13:43:00,
2013-08-12 09:53:00,70.0,-99.9,30.02,ESE,117,-999.0,-999.0,-999,0.00,,,-99.99,,2013-08-12 13:53:00,
2013-08-12 10:32:00,70.0,-99.9,30.02,ESE,117,-999.0,-999.0,-999,0.00,,,-99.99,,2013-08-12 14:32:00,
2013-08-12 10:42:00,70.0,-99.9,30.02,ESE,117,-999.0,-999.0,-999,0.00,,,-99.99,,2013-08-12 14:42:00,
2013-08-12 11:33:00,71.0,-99.9,30.02,ESE,117,-999.0,-999.0,-999,0.00,,,-99.99,,2013-08-12 15:33:00,
2013-08-12 11:43:00,71.0,-99.9,30.02,ESE,117,-999.0,-999.0,-999,0.00,,,-99.99,,2013-08-12 15:43:00,
2013-08-12 11:52:00,71.0,-99.9,30.02,ESE,117,-999.0,-999.0,-999,0.00,,,-99.99,,2013-08-12 15:52:00,
2013-08-12 11:53:00,76.0,-99.9,30.01,ENE,69,3.0,6.0,-999,0.00,,,-99.99,,2013-08-12 15:53:00,
2013-08-12 12:33:00,76.0,-99.9,30.01,ENE,69,3.0,6.0,-999,0.00,,,-99.99,,2013-08-12 16:33:00,
2013-08-12 12:43:00,76.0,-99.9,30.01,ENE,69,3.0,6.0,-999,0.00,,,-99.99,,2013-08-12 16:43:00,
2013-08-12 13:43:00,79.0,-99.9,30.00,ENE,73,-999.0,5.0,-999,0.00,,,-99.99,,2013-08-12 17:43:00,
2013-08-12 13:52:00,79.0,-99.9,30.00,ENE,73,-999.0,5.0,-999,0.00,,,-99.99,,2013-08-12 17:52:00,
2013-08-12 14:43:00,80.0,-99.9,29.99,North,349,-999.0,3.0,-999,0.00,,,-99.99,,2013-08-12 18:43:00,
2013-08-12 14:52:00,80.0,-99.9,29.99,North,349,-999.0,3.0,-999,0.00,,,-99.99,,2013-08-12 18:52:00,
2013-08-12 15:33:00,82.0,-99.9,29.97,NNE,29,-999.0,-999.0,-999,0.00,,,-99.99,,2013-08-12 19:33:00,
2013-08-12 15:43:00,82.0,-99.9,29.97,NNE,29,-999.0,-999.0,-999,0.00,,,-99.99,,2013-08-12 19:43:00,
2013-08-12 15:52:00,82.0,-99.9,29.97,NNE,29,-999.0,-999.0,-999,0.00,,,-99.99,,2013-08-12 19:52:00,
2013-08-12 16:32:00,82.0,-99.9,29.95,West,261,4.0,-999.0,-999,0.00,,,-99.99,,2013-08-12 20:32:00,
2013-08-12 16:42:00,82.0,-99.9,29.95,West,261,4.0,-999.0,-999,0.00,,,-99.99,,2013-08-12 20:42:00,
2013-08-12 16:52:00,82.0,-99.9,29.95,West,261,4.0,-999.0,-999,0.00,,,-99.99,,2013-08-12 20:52:00,
2013-08-12 17:43:00,82.0,-99.9,29.95,ESE,110,-999.0,5.0,-999,0.00,,,-99.99,,2013-08-12 21:43:00,
2013-08-12 17:52:00,82.0,-99.9,29.95,ESE,110,-999.0,5.0,-999,0.00,,,-99.99,,2013-08-12 21:52:00,
2013-08-12 17:53:00,81.0,-99.9,29.93,SW,233,-999.0,-999.0,-999,0.00,,,-99.99,,2013-08-12 21:53:00,
2013-08-12 18:32:00,81.0,-99.9,29.93,SW,233,-999.0,-999.0,-999,0.00,,,-99.99,,2013-08-12 22:32:00,
2013-08-12 18:43:00,81.0,-99.9,29.93,SW,233,-999.0,-999.0,-999,0.00,,,-99.99,,2013-08-12 22:43:00,
2013-08-12 18:53:00,79.0,-99.9,29.93,West,273,-999.0,-999.0,-999,0.00,,,-99.99,,2013-08-12 22:53:00,
2013-08-12 19:44:00,79.0,-99.9,29.93,West,273,-999.0,-999.0,-999,0.00,,,-99.99,,2013-08-12 23:44:00,
2013-08-12 19:53:00,75.0,-99.9,29.92,West,273,-999.0,-999.0,-999,0.00,,,-99.99,,2013-08-12 23:53:00,
2013-08-12 20:45:00,75.0,-99.9,29.92,West,273,-999.0,-999.0,-999,0.00,,,-99.99,,2013-08-13 00:45:00,
2013-08-12 20:53:00,72.0,-99.9,29.92,West,273,-999.0,-999.0,-999,0.00,,,-99.99,,2013-08-13 00:53:00,
2013-08-12 21:42:00,72.0,-99.9,29.92,West,273,-999.0,-999.0,-999,0.00,,,-99.99,,2013-08-13 01:42:00,
2013-08-12 22:43:00,70.0,-99.9,29.93,West,273,-999.0,-999.0,-999,0.00,,,-99.99,,2013-08-13 02:43:00,
2013-08-12 22:52:00,70.0,-99.9,29.93,West,273,-999.0,-999.0,-999,0.00,,,-99.99,,2013-08-13 02:52:00,
2013-08-12 22:53:00,69.0,-99.9,29.93,West,273,-999.0,-999.0,-999,0.00,,,-99.99,,2013-08-13 02:53:00,
2013-08-12 23:43:00,69.0,-99.9,29.93,West,273,-999.0,-999.0,-999,0.00,,,-99.99,,2013-08-13 03:43:00,
2013-08-12 23:53:00,68.0,-99.9,29.93,West,273,-999.0,-999.0,-999,0.00,,,-99.99,,2013-08-13 03:53:00,